MysteryTwister C3
NUMBER OF ACTIVE MEMBERS:

8045
Follow us: Facebook Twitter
 



Level I Challenges (75)

Page 1 of the challenges in Level I, ordered by date posted (the most recent appear first).

A Secret Message from Castle Mansfeld

[schroedel-04] - 104 users already solved this challenge, 15 are working on it.
 
 
 

In September 1902, a book seller named Paul Winkler received a postcard in cipher. Sent from the nearby Mansfeld castle, it appears that a young lady wants to meet with Paul – secretly.

Find the name of the young lady and submit it as the codeword for this challenge. Use only capital letters.
Read more...

Click here to get to the corresponding forum topic to share your opinion.
Click here to download the challenge.

Author: This email address is being protected from spambots. You need JavaScript enabled to view it.
Published on: 2010-10-14 13:30
Maximum number of attempts for this challenge: 15

All successful users of this challenge

Rank User (#104) Achieved points (Global score) y-m-d - h:m:s

Nobody (nobody) 200 (40618) 2010-10-14 13:36:55
Simon Jakob (simon.jakob) 200 (18714) 2010-10-15 01:34:09
./. (matudo) 133 (373) 2010-10-16 17:19:00
Zaproth Beeblebrox (chmhnk) 125 (356) 2010-10-17 15:01:19
#5 Carsten Lenz (kAyCeE80) 120 (460) 2010-10-18 16:05:31
#6 Grinse Katze (Grinsekatze) 120 (964) 2010-10-18 16:12:15
#7 Ralf Stephan (rwst) 120 (22735) 2010-10-18 18:16:56
#8 Gruppe KleinWaltherBurkhardt (hucke) 120 (120) 2010-10-18 18:34:18
#9 Roadrunner (rr) 120 (12702) 2010-10-19 00:25:08
#10 Kathi (blubb) 117 (117) 2010-10-19 14:03:07
#11 edel (blackbull_tm) 117 (117) 2010-10-19 14:03:49
#12 Maximilian T (LMax) 117 (1903) 2010-10-19 14:03:58
#13 Anibal Kürekci (ak187) 117 (967) 2010-10-19 15:07:14
#14 Steffen Kolarczyk (TypeXII) 113 (227) 2010-10-21 23:14:23
#15 Michail Pokryschkin (micpok) 113 (766) 2010-10-22 10:14:15
#16 Arnold Sendler (Tschighor) 111 (1105) 2010-10-22 23:48:06
#17 Paul (P4ul) 109 (242) 2010-10-24 19:06:33
#18 Bernd Freise (Xanhem) 108 (1154) 2010-10-25 21:03:30
#19 Stefan Neubert (sneubert) 108 (108) 2010-10-26 12:36:01
#20 Armin Krauss (argh) 107 (152721) 2010-10-29 11:32:12
#21 Carsten Baum (crashti) 105 (1135) 2010-11-01 22:13:38
#22 Gary Hawk (Highlander) 105 (631) 2010-11-02 15:27:40
#23 Roland Röder (roro) 105 (307) 2010-11-04 21:57:29
#24 Ulrich Armbrüster (uarmbruester) 104 (7987) 2010-11-09 13:56:41
#25 Hans Schuell (hschuell) 103 (2194) 2010-11-13 15:10:23
#26 Nils Achim Lacke (Babbage) 103 (618) 2010-11-20 22:02:38
#27 Max Mustermann (MustermM) 102 (6661) 2010-11-30 20:06:19
#28 Thomas Gonda (TomG) 102 (33741) 2010-12-08 17:52:23
#29 Hans Rudolf (mutabor) 101 (3015) 2011-01-04 16:28:16
#30 Wombat (Wombat) 101 (5822) 2011-04-25 14:50:29
#31 Egon Hamburger (Seehase) 101 (3445) 2011-04-28 14:04:11
#32 Muendo (muendo) 100 (3501) 2011-05-10 14:40:04
#33 Peter Mustermann (Gummiboot) 100 (60285) 2011-07-17 03:29:49
#34 Seth Kintigh (DarkFibre) 100 (79471) 2011-07-18 06:29:28
#35 Stefan Haas (stef_the_chef) 100 (4329) 2011-07-29 18:27:58
#36 Daniel Fretwell (fretty) 100 (30107) 2011-08-01 12:45:47
#37 David Willem Borgdorff (dwborgdorff) 100 (100) 2011-08-26 18:53:32
#38 Horst Kevin (lordstege) 100 (1419) 2011-08-28 00:08:05
#39 Sash Marcus (stryker2k11) 100 (302) 2011-08-28 18:19:25
#40 Robert S (shadowhorst) 100 (402) 2011-08-28 19:04:06
#41 J. M. (jomandi) 100 (113270) 2011-09-20 23:31:51
#42 Viktor (Veselovský) 100 (113116) 2011-09-22 01:35:44
#43 Bart den Hartog (Bart13) 100 (116412) 2011-11-05 17:52:01
#44 Thomas Mattel (Tom) 100 (2462) 2011-12-23 22:05:05
#45 André Koch-Kramer (FriF1) 100 (602) 2012-01-06 03:55:25
#46 j.h. (haegarq) 100 (11696) 2012-01-16 18:51:16
#47 Tom Tox (tox) 100 (11752) 2012-02-04 18:48:58
#48 Hans Peter (hanspeter) 100 (48115) 2012-03-22 09:35:10
#49 Aliazer (Aliazer) 100 (12214) 2012-04-21 14:06:33
#50 zuben c3 (zuben-c3) 100 (15014) 2012-06-12 11:28:22
#51 Dusan (xxdradus) 100 (40134) 2012-08-02 14:25:03
#52 tuighin (tuighi) 100 (609) 2012-09-03 20:03:03
#53 KW (qwer*) 100 (13753) 2012-09-03 20:34:23
#54 Harry (Schwabenbambi) 100 (2409) 2012-09-18 17:06:48
#55 Holti (Holti) 100 (6035) 2012-09-25 16:34:58
#56 Martina (Nikita) 100 (3863) 2012-11-13 07:51:50
#57 George (Theofanidis) 100 (88988) 2012-11-27 17:29:31
#58 Julia Werdelmann (jw) 100 (10407) 2012-12-19 10:15:08
#59 Snake (snk) 100 (51689) 2013-02-24 16:22:24
#60 Petra (humppapenguin) 100 (3872) 2013-04-17 23:02:31
#61 Bernhard Gruber (bgr) 100 (22631) 2013-04-24 16:25:43
#62 Hans Joachim Girulat (joregi) 100 (28462) 2013-04-29 22:14:44
#63 Luigi Tomelli (archstanton) 100 (95549) 2013-06-30 17:38:13
#64 Almut (problelmo) 100 (45992) 2013-07-23 20:34:35
#65 Sebastian Slupina (Grandwizard) 100 (6901) 2013-08-19 10:06:11
#66 Sebastian Kluge (zappo) 100 (1801) 2013-09-09 11:54:55
#67 Steve (Samacian) 100 (23704) 2013-09-09 12:29:16
#68 zahir mohsen moradi (ariobarzan) 100 (99757) 2013-09-10 11:55:07
#69 Em Doulgerakis (Greko) 100 (109970) 2013-09-26 14:06:34
#70 Kurt Gebauer (Yokozuna) 100 (120839) 2013-10-16 19:31:35
#71 Alain (Integral) 100 (198642) 2013-12-20 19:08:08
#72 Jim Gillogly (Scryer) 100 (21260) 2014-01-02 05:07:14
#73 Pavel (haw) 100 (22728) 2014-01-23 18:43:53
#74 Kim H. S. (tenchijin) 100 (21386) 2014-02-11 09:06:31
#75 Siggi Kraus (Kruxi) 100 (701) 2014-04-24 22:43:30
#76 Karl Schutt (günter) 100 (34469) 2014-04-27 11:51:23
#77 Julia Bernotat (El Greco ) 100 (81129) 2014-07-06 14:43:39
#78 Robert (rm) 100 (56012) 2014-07-31 22:34:38
#79 Andreas Frerichs (Ossili) 100 (33026) 2014-09-28 17:24:19
#80 Francisco Moraes (fmoraes) 100 (90044) 2014-11-22 20:00:26
#81 HolgerK (HolgerK) 100 (23648) 2014-12-06 17:06:11
#82 Tim Fink (Magellan) 100 (3726) 2014-12-15 02:42:48
#83 Bertold (bk) 100 (8972) 2015-01-02 21:21:45
#84 Rainer Zufall (kiekuk) 100 (42198) 2015-02-28 20:02:20
#85 Michael Ammon (Ammonym) 100 (7719) 2015-06-13 12:35:33
#86 Joerg G. (SnifferMaster) 100 (17225) 2015-10-12 09:08:36
#87 Martin (martinbucher) 100 (22726) 2015-11-03 03:34:54
#88 Michael Möller (michaelm) 100 (117401) 2015-11-14 19:37:24
#89 Jan (xray) 100 (904) 2015-12-12 06:59:05
#90 Marc (rcll0891) 100 (17460) 2015-12-27 15:25:08
#91 Szabó Zoltán (szabo.z87) 100 (47990) 2016-01-05 10:10:56
#92 Michael (soilfront) 100 (2617) 2016-01-24 18:05:32
#93 Alain Collignon (vexilla72) 100 (49713) 2016-02-05 17:33:44
#94 Joerg Schaeffler (DrAcula) 100 (2948) 2016-02-08 18:28:40
#95 Marcus (marcus) 100 (201) 2016-05-01 02:38:06
#96 Norbert Biermann (Norbert) 100 (40024) 2016-07-15 22:35:56
#97 Peter (Garnet) 100 (14033) 2016-09-27 13:09:17
#98 Michael (FoM) 100 (13778) 2016-11-27 23:33:13
#99 Marcel (bene1512) 100 (20896) 2017-01-17 00:50:02
#100 S (Zyphe) 100 (8324) 2017-01-18 00:04:18
#101 Mir Dim (mir0soft) 100 (46662) 2017-03-18 23:30:29
#102 Dominik M. (Sgt. Pepper) 100 (43997) 2017-03-29 16:05:14
#103 Danny Higgins (hamster147) 100 (14185) 2017-04-25 14:16:15
#104 Daniel Walder (ibex) 100 (14272) 2017-04-29 01:15:43
You must be logged in to solve the challenge
Pages [1] 1 Show All  
 
 
powered by the CrypTool project  CrypTool

 

   +++    [20:10 - 25.05.2017] kasia-tutej solved the Level I challenge 'Number Sequence — Part 2'    +++    [15:58 - 25.05.2017] kasia-tutej solved the Level I challenge 'Number Sequence'    +++    [13:56 - 25.05.2017] mir0soft solved the Level I challenge 'ECDH-Key Exchange for Beginners'    +++    [07:50 - 25.05.2017] joelhdzhdz solved the Level II challenge 'Alice's Birthday Party (Part 1)'    +++    [03:35 - 25.05.2017] tryeng solved the Level I challenge 'A hidden word — Part 2'    +++